Location: Gleizolles
(44.4833°N, 6.7667°E)
Time: 16:37:27
(UTC+00:00)

Tiros 1 - Pass Details

Date: 26 June 2024
Orbit: 624 x 656 km, 48.4° (Epoch: 13 July)

Event Time Altitude Azimuth Distance (km) Brightness Sun altitude
Rises 03:40:45 0° 292° (WNW) 2,917 10.2 -2.2°
Reaches altitude 10° 03:43:06 10° 288° (WNW) 2,011 9.4 -1.8°
Maximum altitude 03:47:36 53° 212° (SSW) 779 7.3 -1.2°
Drops below altitude 10° 03:52:08 10° 135° (SE) 2,023 9.9 -0.5°
Sets 03:54:30 0° 131° (SE) 2,935 10.7 -0.2°
